Wetbulb
53.45 53.60 53.73 53.88 53.88 53.99 54.36 54.66 55.01 55.06 55.89 56.59 57.22 57.76 58.32 58.26 56.78 59.69 56.43 60.58 61.79 62.48 62.82 63.12 63.95 64.04 64.07 61.25 61.93 61.88 57.01 55.46 54.61 55.05 56.64 61.09 59.67 61.18 61.42 60.06 60.58 61.00 60.08 62.19 64.68
53.19 53.42 53.41 53.34 53.42 54.02 54.13 54.11 54.33 54.83 55.87 56.53 57.13 57.57 57.76 57.59 58.85 56.00 61.61 61.86 62.63 63.29 63.41 62.71 61.69 62.48 59.83 57.79 61.66 59.23 57.34 55.21 58.85 58.91 57.84 59.97 60.33 59.37 59.05 59.27 58.86 59.86 62.22 63.91 63.22
52.71 52.92 52.91 52.98 52.90 52.96 53.48 53.63 53.92 54.52 55.24 56.23 56.88 57.55 57.25 58.69 55.49 55.49 62.38 63.19 63.51 63.77 65.35 63.71 60.62 58.26 56.02 57.56 58.43 59.24 56.74 58.50 58.87 59.95 60.28 59.93 60.33 61.22 59.55 57.89 60.18 59.88 60.92 62.13 61.67
52.08 52.18 52.29 52.39 52.49 52.47 53.05 53.21 53.28 54.19 54.99 55.77 56.36 57.47 57.32 60.56 47.72 58.25 64.28 64.44 64.27 65.43 64.48 60.71 57.62 56.47 56.37 57.38 60.32 57.31 58.98 59.87 60.01 60.43 59.84 59.21 61.48 59.26 60.69 60.58 62.00 62.78 63.22 62.28 61.09
51.53 51.51 51.74 51.79 51.84 51.85 52.53 52.92 53.07 53.87 54.79 55.47 56.38 57.40 59.21 54.37 53.39 63.25 64.39 64.24 63.51 62.35 61.95 58.17 56.78 56.38 56.00 56.92 59.12 57.97 58.68 59.94 60.49 60.15 60.25 60.89 59.37 59.55 60.30 61.93 62.61 63.67 63.03 62.16 61.72
51.36 51.40 51.40 51.30 51.39 51.51 52.26 52.74 53.34 53.56 54.38 55.55 56.33 56.45 56.35 50.09 57.41 62.46 62.06 61.38 61.20 62.41 61.95 59.64 57.84 57.81 56.91 56.61 57.97 59.16 59.08 59.13 60.01 59.65 60.10 58.52 58.78 59.29 60.72 62.26 61.94 62.18 62.32 62.70 62.15
51.06 51.57 51.28 51.08 51.23 51.32 51.90 52.74 53.28 53.93 54.48 55.63 56.46 58.88 51.70 51.79 60.10 61.47 60.49 59.48 59.97 60.70 59.85 59.95 59.30 57.34 59.09 57.83 60.23 59.61 57.03 58.17 58.61 59.18 58.66 60.18 56.46 57.01 61.27 61.90 60.99 61.57 62.26 62.59 62.62
50.85 51.00 51.32 51.29 51.41 51.41 51.83 52.36 53.18 54.28 55.20 55.96 56.52 57.34 49.79 55.05 59.66 58.82 59.66 58.40 59.42 59.66 59.10 59.53 59.21 57.55 58.05 60.87 58.87 57.03 56.92 52.82 57.00 58.25 58.88 59.00 52.63 58.19 61.54 61.07 60.55 61.17 61.76 62.13 62.59
50.37 50.62 51.13 50.85 50.83 50.85 51.53 52.44 53.98 55.20 55.78 56.33 57.32 53.67 49.40 55.28 53.25 56.44 59.44 56.37 58.34 58.58 59.14 59.26 59.56 57.33 59.20 56.75 54.44 55.30 50.46 50.65 52.00 57.81 57.54 57.79 53.93 58.72 61.36 60.99 60.48 60.90 61.30 61.85 62.41
50.02 50.05 50.78 50.59 50.37 50.50 51.37 53.46 54.68 56.06 57.83 57.99 54.86 51.36 51.69 49.61 54.71 56.33 58.39 57.62 57.09 57.84 57.49 57.95 58.44 55.50 55.74 54.66 47.93 49.22 49.97 50.56 49.92 54.48 56.81 55.94 55.65 58.04 59.47 60.00 60.22 60.84 61.10 61.44 61.77
49.53 49.51 50.14 50.11 50.13 50.76 56.53 61.09 57.18 55.78 56.55 52.21 51.01 49.83 49.88 54.64 56.04 55.22 57.92 56.78 57.84 56.81 52.73 56.46 53.73 51.10 53.08 54.76 54.36 52.68 51.27 50.08 51.84 54.39 54.35 54.87 55.06 56.43 59.33 59.31 59.34 60.17 60.49 60.99 61.85
48.96 48.84 49.41 49.66 49.89 51.24 60.19 56.49 53.35 53.61 50.89 53.77 53.95 53.32 54.02 54.92 50.43 54.02 59.69 54.19 55.31 51.74 54.97 53.74 50.08 53.66 55.63 54.98 53.62 52.57 50.65 49.95 51.89 53.90 53.95 54.02 53.58 55.75 57.49 58.55 59.10 59.14 60.00 60.93 61.62
48.70 48.40 48.75 49.06 49.90 56.42 55.75 52.10 54.40 57.23 51.38 50.46 52.21 52.57 53.30 54.53 49.51 52.09 58.11 56.39 53.91 51.48 52.59 50.90 52.68 55.45 54.42 53.32 51.67 51.66 49.69 49.70 49.54 52.04 54.52 53.19 51.57 53.19 57.14 58.03 58.18 60.20 61.30 61.08 61.42
48.22 48.36 48.57 48.22 51.72 50.48 55.86 52.24 57.47 58.66 47.14 46.27 49.11 51.20 52.79 53.43 48.65 53.72 57.09 57.04 54.66 50.99 51.67 51.84 55.05 53.71 53.47 52.05 52.86 48.95 53.21 51.83 49.88 48.23 45.72 53.04 44.04 50.34 52.48 54.94 56.25 57.54 59.62 60.78 61.28
47.71 47.69 48.31 47.92 48.70 51.82 50.53 53.83 59.80 57.33 37.37 45.54 50.24 55.39 52.74 50.17 49.45 49.94 56.26 56.75 51.83 51.77 53.16 50.07 52.47 52.35 51.41 51.92 52.73 49.50 51.52 51.27 49.77 48.72 48.27 48.31 45.98 47.28 50.66 49.92 51.24 55.39 57.91 60.17 61.62
47.69 47.48 47.72 49.19 50.49 49.94 52.44 56.22 57.22 45.07 37.36 44.83 49.59 48.06 47.79 49.29 47.90 50.57 51.63 56.41 56.00 53.49 53.85 51.97 54.03 53.16 52.82 52.33 52.29 51.87 50.39 49.45 49.09 48.50 42.52 46.53 45.75 45.71 48.45 50.44 51.38 52.44 53.91 56.50 60.01
47.69 47.50 47.86 49.93 48.59 51.16 53.74 56.98 43.50 37.51 44.28 43.62 45.50 46.18 47.55 46.62 46.47 48.53 48.21 49.05 48.01 45.65 46.46 50.27 51.11 51.64 51.47 49.12 51.29 50.94 48.78 42.93 41.17 41.45 40.05 46.17 43.74 45.95 49.79 50.01 50.71 51.53 54.06 56.03 58.64
47.37 47.12 48.32 50.33 52.23 53.92 57.32 49.60 35.73 40.65 41.84 47.76 47.88 47.28 44.41 46.48 46.71 46.51 46.37 45.73 49.70 49.49 46.15 44.17 42.44 49.14 51.42 50.00 48.21 49.08 48.68 43.34 36.02 37.91 41.02 45.48 40.93 46.60 50.24 51.12 52.00 52.40 53.28 54.25 57.65
46.83 51.21 50.94 55.31 55.63 56.69 53.41 39.00 39.68 41.47 45.63 46.07 47.20 44.26 44.14 44.66 44.67 46.13 46.23 45.31 47.55 49.71 44.39 43.55 43.08 49.50 49.63 51.51 51.19 48.22 45.57 49.84 44.67 43.66 40.98 43.69 46.03 49.71 51.24 50.33 51.19 51.91 51.80 52.82 53.98
45.63 48.37 51.47 58.00 57.09 55.72 46.84 40.11 43.15 46.73 48.84 47.57 43.20 44.15 42.69 43.45 42.95 44.36 44.75 46.83 47.01 49.73 51.19 47.24 41.85 47.15 47.80 50.37 50.08 49.41 51.11 44.03 45.40 35.90 34.13 40.23 42.24 43.48 47.82 49.29 50.79 51.97 52.43 52.21 52.76
46.88 43.95 54.48 58.32 56.59 48.13 39.85 40.49 42.93 48.17 49.64 46.72 44.83 44.13 43.41 43.25 44.01 43.25 43.65 44.62 46.42 47.76 51.28 48.91 46.42 44.25 46.40 46.00 45.71 46.84 46.29 47.02 46.88 44.50 37.73 36.75 41.62 49.60 49.23 50.44 51.16 52.64 52.40 52.93 53.14
47.37 39.21 53.82 57.20 42.55 43.86 38.45 40.05 43.15 45.42 47.58 47.52 47.79 46.82 45.38 44.98 44.13 43.35 42.49 44.81 48.50 48.52 45.41 49.56 47.28 42.07 43.83 47.51 48.44 49.02 47.17 47.56 43.44 40.12 42.94 42.08 42.11 50.47 51.63 51.90 51.88 52.79 52.27 52.90 53.26
42.38 47.06 53.40 53.88 38.35 38.75 40.78 40.83 43.50 43.18 43.95 43.74 44.71 46.46 47.08 45.80 42.69 45.13 45.85 48.49 49.04 47.52 46.94 49.19 45.18 40.59 41.38 44.35 46.37 45.25 47.38 48.20 47.82 46.70 42.46 39.71 42.48 51.10 51.51 51.59 52.01 53.19 52.60 52.27 52.54
43.00 37.03 46.44 47.84 47.16 41.20 39.80 39.19 38.98 43.58 42.94 43.23 42.61 45.02 44.37 43.92 46.99 45.07 45.75 47.85 48.86 48.70 45.36 48.16 46.15 43.22 39.31 42.67 46.08 43.02 44.83 46.87 46.24 43.04 42.75 43.32 45.06 48.88 50.30 51.15 51.96 52.39 52.93 52.57 51.84
43.17 38.91 43.26 37.15 41.38 42.73 42.05 40.54 38.77 38.74 43.22 44.28 41.80 41.19 41.13 39.43 41.66 43.18 45.89 46.85 48.10 48.02 47.84 48.26 42.34 44.38 44.93 45.14 45.01 44.40 44.01 45.06 44.00 45.24 42.27 44.49 45.20 48.13 50.33 51.29 52.92 53.32 52.39 51.29 50.58
40.53 40.91 42.53 42.06 42.36 42.59 40.29 40.26 39.32 39.78 40.87 40.42 40.75 42.31 43.40 39.75 41.41 41.62 43.68 44.91 44.62 48.38 47.40 46.74 43.36 43.22 41.70 44.73 44.44 42.61 44.34 44.92 45.39 45.20 45.08 45.54 45.39 50.81 52.22 52.41 52.23 52.20 51.28 50.04 50.13
45.03 45.41 43.48 38.30 41.17 40.40 40.24 40.04 40.23 42.25 41.72 43.33 42.69 42.09 41.92 44.31 45.70 46.47 47.29 47.43 47.00 45.45 44.87 45.12 44.11 41.40 38.37 42.86 43.30 39.68 43.70 44.44 45.50 46.87 46.49 43.25 47.57 51.49 50.99 50.84 52.08 52.60 51.68 50.87 50.77
MSLP
1022.33 1021.91 1021.38 1020.84 1020.44 1020.09 1019.58 1019.10 1018.77 1018.41 1018.02 1017.55 1017.05 1016.67 1016.25 1015.91 1015.69 1015.12 1013.24 1012.68 1012.88 1013.58 1013.65 1013.26 1012.91 1012.65 1012.34 1011.74 1011.82 1011.42 1009.93 1009.46 1010.16 1010.45 1011.34 1012.43 1012.92 1013.90 1014.79 1015.06 1015.62 1016.30 1016.57 1017.19 1019.03
1022.47 1021.98 1021.42 1020.88 1020.38 1019.95 1019.50 1018.97 1018.60 1018.28 1017.77 1017.42 1017.01 1016.56 1016.26 1015.87 1014.85 1013.36 1012.48 1012.61 1013.11 1013.44 1012.85 1012.41 1012.18 1012.29 1011.58 1011.53 1011.37 1010.90 1010.01 1010.34 1011.03 1011.21 1011.34 1012.28 1012.67 1013.76 1014.31 1014.65 1015.23 1016.18 1017.26 1018.07 1019.45
1022.48 1022.02 1021.51 1020.93 1020.39 1019.85 1019.35 1018.93 1018.50 1018.01 1017.57 1017.18 1016.88 1016.40 1016.08 1015.62 1014.07 1012.07 1012.36 1012.66 1012.88 1013.13 1012.24 1012.25 1012.17 1011.97 1011.36 1011.38 1011.17 1010.97 1010.20 1011.02 1011.34 1011.64 1011.87 1012.17 1012.54 1013.48 1013.47 1013.64 1013.91 1014.98 1016.81 1018.27 1019.25
1022.61 1022.11 1021.58 1020.91 1020.29 1019.64 1019.14 1018.71 1018.30 1017.76 1017.29 1016.96 1016.66 1016.20 1015.83 1014.99 1012.65 1012.01 1012.64 1012.89 1013.00 1012.37 1012.12 1011.96 1011.76 1011.34 1010.97 1010.68 1010.98 1010.67 1010.95 1011.11 1011.46 1011.93 1012.01 1012.08 1012.54 1013.23 1013.06 1013.04 1013.98 1014.49 1016.29 1017.80 1018.72
1022.62 1022.12 1021.56 1020.91 1020.26 1019.53 1018.91 1018.37 1017.85 1017.52 1017.03 1016.65 1016.43 1015.98 1015.44 1013.64 1011.88 1012.25 1012.77 1013.14 1012.92 1012.46 1011.78 1011.56 1011.30 1011.04 1010.57 1010.64 1010.83 1010.67 1010.78 1011.21 1011.73 1012.06 1012.08 1012.41 1012.67 1012.65 1012.87 1013.54 1014.13 1014.93 1016.30 1017.29 1018.30
1022.62 1022.05 1021.42 1020.81 1020.17 1019.48 1018.76 1018.05 1017.51 1017.13 1016.83 1016.33 1016.16 1015.96 1014.63 1012.71 1011.99 1012.23 1012.31 1012.70 1012.14 1012.13 1011.71 1011.65 1011.19 1011.32 1010.94 1010.78 1010.69 1010.81 1010.86 1011.12 1011.52 1011.80 1012.19 1012.14 1012.54 1012.96 1012.50 1013.77 1014.49 1015.29 1016.08 1016.90 1017.73
1022.54 1021.93 1021.30 1020.59 1019.87 1019.19 1018.49 1017.74 1017.10 1016.62 1016.34 1016.04 1015.79 1015.11 1013.75 1012.20 1012.05 1012.25 1012.40 1012.11 1012.15 1011.86 1011.56 1011.72 1011.73 1011.54 1011.25 1010.92 1011.33 1011.15 1010.76 1011.00 1011.13 1011.49 1011.73 1011.91 1011.97 1011.91 1012.38 1013.48 1014.21 1014.99 1015.79 1016.59 1017.50
1022.60 1021.98 1021.18 1020.31 1019.55 1018.73 1017.88 1017.18 1016.56 1016.16 1015.74 1015.54 1015.46 1014.46 1012.69 1012.52 1012.26 1012.28 1012.12 1012.17 1012.36 1012.25 1012.04 1012.09 1012.06 1011.67 1011.43 1011.48 1011.30 1010.85 1010.89 1009.96 1010.52 1011.33 1011.62 1011.77 1009.75 1010.66 1012.14 1012.94 1013.65 1014.61 1015.39 1016.30 1016.97
1022.57 1021.88 1021.08 1020.14 1019.24 1018.33 1017.34 1016.67 1016.05 1015.71 1015.56 1015.35 1014.95 1013.84 1012.17 1012.96 1012.28 1011.67 1011.71 1011.48 1012.06 1012.32 1012.30 1012.37 1012.00 1011.34 1011.54 1011.01 1010.56 1010.50 1009.72 1009.81 1010.08 1010.92 1011.00 1011.42 1009.61 1010.48 1011.79 1012.41 1012.82 1014.02 1014.89 1015.74 1016.65
1022.39 1021.69 1020.89 1019.93 1018.95 1017.94 1016.71 1016.06 1015.70 1015.51 1015.31 1014.66 1014.17 1013.76 1012.24 1011.64 1011.68 1011.78 1011.81 1011.82 1011.57 1011.96 1012.12 1012.01 1011.42 1010.96 1010.74 1010.45 1009.41 1009.21 1009.70 1009.90 1010.18 1010.19 1010.90 1010.49 1010.15 1010.38 1011.64 1012.13 1012.35 1013.34 1014.21 1015.03 1015.79
1022.27 1021.61 1020.82 1019.99 1018.91 1017.79 1016.22 1015.22 1015.67 1015.28 1014.44 1013.36 1012.77 1012.39 1012.02 1011.76 1011.94 1011.44 1011.49 1011.69 1011.32 1011.25 1010.99 1011.13 1010.77 1010.04 1009.82 1010.03 1010.11 1010.43 1010.38 1009.98 1009.78 1009.74 1010.40 1009.88 1009.66 1009.37 1010.15 1011.44 1011.90 1012.53 1013.40 1014.20 1015.01
1022.18 1021.60 1020.79 1019.88 1018.95 1017.73 1016.29 1016.15 1017.79 1018.34 1015.41 1013.61 1013.27 1012.92 1012.45 1012.17 1011.26 1010.88 1011.20 1011.03 1010.92 1010.53 1010.71 1011.12 1010.25 1009.95 1010.22 1010.57 1010.87 1010.60 1010.31 1009.85 1009.65 1010.20 1010.50 1009.36 1008.94 1008.68 1009.27 1010.28 1010.93 1011.70 1012.49 1013.37 1014.38
1022.00 1021.41 1020.65 1019.62 1018.66 1017.86 1017.42 1018.00 1018.31 1018.11 1016.13 1013.41 1012.77 1012.17 1011.79 1011.91 1010.79 1010.16 1010.65 1010.30 1010.24 1010.23 1010.37 1010.02 1009.83 1010.21 1010.69 1010.64 1010.79 1010.48 1010.24 1009.83 1009.90 1010.30 1010.27 1009.73 1008.48 1007.79 1008.95 1009.87 1010.68 1010.92 1011.71 1012.76 1013.68
1022.07 1021.45 1020.76 1019.57 1018.84 1018.67 1018.01 1018.48 1018.25 1018.04 1015.55 1013.08 1012.24 1011.39 1011.61 1011.15 1010.58 1010.08 1010.22 1010.19 1010.24 1009.96 1010.10 1010.01 1010.00 1010.53 1010.62 1010.49 1010.65 1010.21 1009.96 1010.25 1010.08 1010.11 1008.91 1009.55 1007.74 1008.02 1007.89 1008.87 1009.91 1010.73 1011.23 1011.84 1012.97
1022.10 1021.57 1021.07 1020.46 1019.59 1018.47 1018.72 1018.48 1018.16 1017.66 1015.06 1012.78 1011.56 1011.35 1010.93 1010.42 1010.03 1010.07 1010.41 1010.19 1009.71 1009.96 1010.56 1010.05 1010.41 1010.54 1010.32 1010.30 1010.49 1010.46 1010.63 1010.38 1010.25 1010.04 1009.78 1008.96 1008.79 1007.64 1008.20 1008.47 1008.91 1009.72 1010.94 1011.68 1012.35
1021.96 1021.56 1021.25 1020.20 1019.64 1018.90 1018.85 1018.44 1017.88 1016.39 1013.77 1012.04 1011.16 1010.92 1010.73 1010.39 1010.08 1010.07 1010.17 1010.29 1010.27 1010.23 1010.54 1010.13 1010.83 1010.63 1010.31 1010.57 1010.78 1010.68 1010.89 1010.81 1010.76 1010.40 1009.72 1009.18 1008.81 1007.86 1007.68 1008.24 1009.03 1010.50 1011.09 1011.45 1011.82
1021.81 1021.40 1021.05 1020.09 1018.86 1019.06 1018.82 1017.69 1016.57 1014.84 1013.21 1011.88 1010.96 1010.78 1010.30 1010.01 1009.95 1009.69 1009.83 1009.90 1009.75 1010.08 1009.97 1010.31 1010.41 1010.80 1010.92 1010.65 1010.96 1010.95 1010.67 1010.39 1010.08 1009.87 1009.62 1009.76 1009.53 1008.21 1008.43 1009.57 1010.50 1011.12 1011.59 1012.02 1011.93
1021.38 1020.98 1020.21 1019.45 1019.09 1019.00 1018.17 1016.86 1015.54 1013.47 1012.59 1012.20 1011.44 1010.98 1010.31 1010.05 1009.82 1009.76 1009.67 1009.38 1010.01 1009.76 1009.40 1009.63 1009.77 1010.36 1010.49 1010.43 1010.06 1010.50 1010.49 1010.54 1010.34 1010.04 1009.52 1010.16 1009.09 1008.16 1009.49 1010.47 1011.23 1011.81 1012.26 1012.64 1012.71
1020.99 1019.82 1019.40 1018.91 1018.98 1018.73 1017.36 1016.26 1014.38 1013.45 1013.01 1012.37 1011.70 1010.94 1010.37 1010.24 1010.16 1009.99 1009.75 1009.36 1009.40 1009.89 1009.76 1009.65 1009.60 1010.22 1010.64 1010.46 1010.74 1010.77 1011.09 1011.12 1011.20 1011.78 1011.01 1009.97 1008.72 1008.40 1009.03 1010.20 1011.07 1011.66 1012.42 1012.88 1013.49
1020.51 1019.45 1018.38 1018.76 1018.82 1017.97 1016.56 1015.39 1014.51 1014.21 1013.53 1012.92 1011.65 1011.43 1010.19 1010.28 1010.44 1010.23 1010.06 1009.77 1009.74 1009.86 1009.77 1009.61 1010.03 1010.47 1011.02 1011.17 1011.41 1011.30 1011.09 1011.90 1011.91 1011.72 1010.70 1009.34 1008.73 1008.17 1008.57 1009.23 1010.49 1011.31 1012.28 1013.32 1014.09
1020.31 1018.71 1018.31 1018.56 1018.49 1017.16 1015.93 1015.05 1014.69 1014.45 1014.08 1013.25 1012.43 1011.90 1011.45 1011.09 1010.82 1010.44 1010.21 1011.00 1010.88 1010.33 1010.41 1010.12 1010.37 1010.68 1011.17 1010.74 1010.32 1011.34 1011.34 1011.79 1011.86 1011.63 1010.58 1009.41 1008.18 1008.28 1008.78 1009.29 1010.01 1010.96 1012.38 1013.39 1014.16
1019.55 1018.07 1018.26 1018.30 1017.56 1016.64 1015.70 1015.33 1015.52 1014.46 1014.29 1013.76 1013.30 1012.81 1012.22 1012.00 1011.41 1011.21 1011.02 1011.54 1011.82 1011.46 1010.83 1010.64 1010.41 1010.16 1010.23 1010.79 1010.99 1010.53 1010.48 1011.06 1011.53 1011.59 1011.30 1010.19 1008.71 1008.68 1009.06 1009.68 1010.42 1011.07 1012.58 1013.77 1014.61
1018.48 1017.75 1018.13 1017.96 1016.54 1015.95 1016.04 1015.55 1015.29 1014.81 1014.36 1014.10 1013.66 1013.45 1013.24 1012.60 1012.31 1012.18 1012.17 1012.60 1012.39 1012.07 1011.54 1011.45 1010.74 1010.47 1010.35 1011.22 1011.39 1010.77 1010.82 1011.12 1011.51 1011.46 1010.33 1009.86 1008.68 1008.76 1009.21 1009.67 1010.37 1011.11 1012.59 1013.97 1014.91
1018.65 1017.94 1017.60 1017.51 1016.95 1015.88 1015.51 1015.22 1015.27 1015.47 1015.03 1014.81 1014.39 1014.15 1013.79 1013.41 1013.18 1012.82 1012.81 1013.16 1013.19 1012.96 1012.96 1012.54 1011.19 1010.34 1009.73 1009.38 1009.66 1010.28 1010.52 1010.91 1011.02 1010.70 1010.01 1008.92 1008.32 1007.95 1008.45 1009.02 1009.87 1011.01 1012.44 1013.79 1014.91
1018.49 1017.58 1017.21 1017.00 1016.75 1016.08 1015.72 1015.31 1015.19 1015.39 1015.48 1015.27 1014.97 1014.65 1014.39 1014.14 1013.96 1013.72 1013.65 1013.59 1013.68 1013.71 1013.34 1012.85 1011.84 1011.28 1010.51 1009.76 1009.26 1009.34 1009.43 1009.88 1010.16 1009.71 1008.97 1008.38 1007.54 1007.15 1007.31 1007.98 1009.02 1010.49 1012.12 1013.54 1014.70
1018.39 1017.55 1017.73 1016.93 1016.48 1016.20 1016.00 1015.66 1015.44 1015.88 1015.72 1015.50 1015.15 1015.55 1015.34 1015.12 1015.15 1014.99 1015.17 1014.61 1014.34 1014.11 1013.75 1013.57 1012.42 1012.08 1011.02 1010.24 1009.54 1009.06 1008.83 1008.79 1008.99 1008.65 1008.05 1007.77 1006.93 1007.04 1007.26 1008.28 1008.89 1010.06 1011.58 1012.92 1014.13
1018.62 1018.40 1017.20 1017.08 1016.49 1016.18 1015.94 1016.23 1016.18 1016.33 1017.01 1016.64 1016.46 1016.20 1016.32 1016.82 1017.05 1016.81 1016.57 1016.19 1015.84 1015.49 1014.56 1014.01 1013.25 1012.52 1011.18 1010.64 1009.76 1008.80 1008.29 1008.02 1007.83 1007.81 1007.50 1006.82 1006.48 1006.38 1007.29 1007.99 1008.37 1009.47 1010.79 1012.01 1013.35
Wind_Speed
18 18 18 19 19 19 19 18 17 18 16 15 14 13 12 11 5 7 8 2 3 13 8 9 5 2 2 2 2 3 5 3 4 2 6 11 12 5 3 7 5 7 1 6 21
18 18 19 20 20 19 18 19 18 18 17 15 14 12 11 10 7 10 6 10 13 12 11 9 6 4 3 1 2 5 4 5 6 5 4 11 12 11 8 9 8 9 8 17 22
18 19 19 20 20 20 19 18 19 18 17 15 13 13 10 9 7 8 7 10 14 13 5 3 4 5 4 3 2 1 5 3 2 3 3 9 12 10 10 10 8 13 15 20 19
18 19 20 20 21 21 20 19 18 19 17 16 15 14 11 6 6 7 2 6 11 9 9 6 5 5 3 3 2 8 1 1 4 0 2 7 9 10 11 10 4 6 17 20 20
18 19 20 20 21 22 20 20 19 18 18 16 14 13 6 7 2 6 9 6 13 11 10 7 7 3 5 3 3 6 3 3 4 3 2 5 9 5 10 4 4 13 17 19 18
18 19 21 21 22 22 21 20 19 17 17 16 12 11 6 9 4 4 9 13 12 14 10 7 2 3 2 4 8 3 1 3 1 4 6 6 6 6 8 8 10 13 16 17 18
19 20 21 23 23 23 21 20 19 17 16 14 9 6 5 2 3 6 11 14 10 11 10 4 3 6 1 6 2 5 7 5 5 4 5 5 9 11 10 12 12 13 14 15 16
19 20 21 22 23 23 22 20 19 16 12 8 6 4 4 2 2 7 7 8 6 5 5 2 3 5 5 4 5 9 7 9 9 6 4 8 4 9 12 14 13 14 14 15 17
19 20 20 22 24 24 22 20 14 5 4 3 5 4 2 3 5 7 9 6 10 7 5 1 6 5 6 11 9 9 13 2 9 7 4 12 7 9 11 13 13 14 14 15 16
20 21 21 24 25 25 24 9 1 3 3 4 1 5 5 4 3 2 7 8 5 11 8 9 8 10 10 10 12 8 7 5 9 4 10 12 16 7 8 12 12 13 14 15 17
20 21 22 24 26 24 13 3 5 6 6 4 1 2 1 3 3 9 7 9 8 12 12 13 11 15 16 15 10 8 11 14 10 4 10 14 16 13 14 13 13 14 15 16 17
19 20 22 23 25 22 6 5 4 3 6 4 7 6 4 3 3 8 9 13 11 14 9 8 16 14 7 6 10 11 13 15 10 5 9 14 15 14 9 15 15 14 15 17 17
19 20 22 24 24 5 9 7 6 5 6 2 4 6 5 8 5 10 11 9 13 16 15 16 10 10 9 10 11 12 12 12 9 2 11 9 16 11 9 10 12 15 15 15 18
18 19 20 29 3 5 3 6 4 6 5 6 6 5 6 5 7 7 8 8 9 15 15 13 11 9 10 11 8 13 9 11 8 8 9 5 12 3 4 10 13 13 13 15 18
17 18 17 13 6 2 5 8 2 5 3 4 6 4 4 12 5 8 3 7 15 11 8 13 11 13 14 15 9 14 3 9 7 10 8 10 8 8 5 9 8 8 11 14 17
16 17 18 4 3 3 7 6 5 3 7 5 4 7 8 11 5 5 10 3 1 6 7 11 1 6 11 4 9 4 7 6 5 8 11 14 9 14 12 8 2 3 4 8 15
15 17 13 4 2 5 7 4 4 5 1 7 5 6 11 10 11 9 14 14 12 13 13 12 13 4 5 9 6 12 10 9 9 9 10 3 8 13 8 3 4 4 2 2 9
16 18 3 5 5 6 4 6 4 3 4 1 2 5 9 9 9 14 9 15 9 12 8 13 13 15 11 15 10 11 12 9 11 11 8 7 8 2 2 1 1 1 0 2 7
18 2 3 2 4 4 8 4 6 3 1 2 4 7 11 7 4 10 17 16 13 15 14 9 10 3 2 5 10 8 9 6 10 2 10 13 15 11 7 5 4 3 3 5 3
5 3 3 1 4 5 7 5 5 2 1 4 7 3 8 8 8 9 11 5 12 14 17 9 9 5 5 6 3 8 3 7 5 4 12 10 8 10 6 3 7 6 5 6 5
4 4 6 1 4 6 6 7 4 4 4 3 4 4 2 4 5 7 5 4 2 7 9 11 11 7 6 11 12 7 11 8 7 7 10 10 5 5 2 3 4 6 6 6 6
2 5 4 3 7 3 7 4 1 6 3 4 3 2 3 2 4 7 5 2 5 3 8 14 9 12 14 5 4 10 14 15 10 9 6 10 11 4 2 2 3 6 7 6 6
3 1 3 5 6 7 4 4 3 6 5 5 5 2 1 3 3 2 3 3 7 2 1 8 9 10 10 6 5 7 11 10 8 7 13 11 8 4 5 6 6 8 9 8 8
3 3 4 4 1 6 8 8 8 3 3 2 2 2 4 5 3 2 4 3 3 6 4 1 5 14 13 13 9 8 13 13 14 11 13 15 18 10 9 10 8 10 11 10 9
4 3 1 5 7 8 7 7 11 7 4 4 4 6 5 6 7 8 5 3 3 3 0 4 7 9 14 14 14 15 15 16 16 19 19 15 20 14 12 8 10 11 12 13 12
4 4 4 3 6 11 6 8 10 7 4 7 5 4 4 8 5 3 3 0 2 2 0 0 5 4 10 14 17 18 17 17 18 19 18 17 20 17 7 5 8 13 15 16 15
3 1 5 5 8 9 9 9 9 8 4 4 4 4 5 6 4 4 6 8 7 5 4 4 3 3 9 4 8 13 18 18 18 16 17 19 17 16 9 11 13 14 17 17 17
Wind_Direction
357 352 350 350 347 342 340 338 338 333 331 329 329 331 330 332 317 196 224 95 143 152 205 148 175 145 251 293 261 285 246 61 55 349 91 157 184 154 106 151 183 161 56 119 144
354 351 349 346 344 340 338 336 332 329 326 326 324 325 327 326 239 226 131 134 142 170 171 179 171 199 216 262 206 277 285 42 6 5 357 179 197 161 184 172 174 152 117 134 152
352 349 347 344 340 336 334 331 327 324 322 322 322 320 318 296 225 211 128 154 158 184 191 161 155 227 249 229 177 134 344 29 78 315 261 184 200 177 206 196 177 184 152 154 161
348 346 343 340 336 334 329 325 323 319 317 317 319 317 315 226 196 88 190 176 165 198 175 180 201 215 229 214 184 255 80 69 66 163 227 196 181 203 216 72 5 142 157 161 169
346 344 341 336 333 330 326 320 317 315 311 309 315 316 268 212 233 68 125 135 181 194 200 197 207 218 213 222 187 237 112 80 99 140 110 145 182 205 213 112 123 133 157 166 171
345 343 338 333 331 328 323 316 310 306 302 301 307 305 255 231 56 127 162 167 188 201 198 213 271 325 260 238 255 126 173 94 92 118 143 188 168 224 186 150 137 152 163 169 174
344 340 334 331 329 324 320 311 306 300 297 291 288 264 242 310 38 146 166 186 187 204 207 202 261 251 331 174 146 169 204 202 196 181 157 204 194 217 143 171 159 165 169 171 176
341 337 331 328 326 323 318 311 303 297 291 280 233 235 262 68 118 173 174 163 195 196 235 189 231 251 260 113 169 215 249 258 131 195 161 226 162 181 162 179 178 175 174 178 178
340 337 331 328 326 323 316 311 299 314 294 180 200 240 215 141 209 197 201 178 173 184 196 123 201 235 179 208 207 197 276 241 291 202 187 224 298 112 177 199 185 184 179 181 179
342 340 334 330 327 324 316 290 216 242 198 217 216 231 199 156 119 143 198 205 173 161 166 209 211 216 218 221 245 261 216 235 278 149 226 231 253 156 180 201 206 189 185 188 188
341 341 335 331 328 324 323 226 219 188 223 284 304 321 123 331 198 193 171 183 184 197 207 201 220 222 225 226 291 294 276 275 279 255 252 244 261 271 182 208 200 201 194 195 193
338 340 335 331 328 316 301 58 50 359 292 223 259 277 260 298 210 182 171 189 197 212 207 191 228 242 261 287 246 248 265 269 277 331 246 263 268 272 211 213 210 208 201 197 186
336 339 337 333 323 322 54 51 324 189 261 221 223 247 233 199 217 187 190 213 211 218 209 234 232 234 217 220 241 242 265 271 276 352 235 268 255 224 206 208 225 214 213 199 193
334 338 338 329 304 341 75 344 320 208 263 157 192 196 185 213 225 194 206 215 209 227 225 239 223 195 202 235 249 263 252 259 265 255 286 228 283 239 150 217 205 227 214 200 196
330 335 338 339 322 282 17 333 188 233 317 128 150 74 173 202 103 173 160 190 222 199 208 219 211 214 232 241 260 265 283 259 255 265 295 220 255 269 165 255 228 188 210 213 200
325 327 334 193 243 336 325 302 224 215 234 159 146 178 170 200 195 125 180 165 313 187 218 257 114 251 256 270 240 250 202 199 226 263 257 266 287 279 287 291 348 176 274 245 207
319 317 309 305 353 331 304 219 210 195 131 165 176 186 209 185 198 191 185 189 198 205 213 209 220 201 209 222 187 204 221 241 233 227 255 8 267 264 295 301 310 309 312 274 209
318 312 178 262 298 303 234 214 202 228 206 73 196 193 207 176 216 204 181 202 220 227 230 219 215 215 192 232 242 211 232 227 253 260 264 144 261 286 66 138 229 228 82 160 182
309 240 226 174 238 244 219 197 218 203 112 221 185 213 199 201 253 201 219 218 201 207 216 210 233 99 225 224 245 186 226 297 267 241 268 269 266 258 218 222 206 161 142 127 172
306 274 180 20 216 228 218 224 227 221 267 220 232 247 217 185 206 204 189 219 215 211 222 217 243 198 129 182 147 267 175 218 226 240 254 253 263 273 224 206 199 191 163 136 140
245 225 103 242 232 212 201 212 197 198 245 241 199 203 207 195 228 205 196 109 267 215 225 206 225 159 179 207 220 180 216 232 269 248 256 270 247 93 347 9 201 189 169 149 137
241 216 107 199 199 211 205 193 142 181 191 217 250 237 239 182 200 205 198 26 10 249 204 210 228 228 218 128 275 267 239 224 223 220 256 275 270 152 213 291 255 187 169 150 140
220 124 139 242 202 202 160 183 222 187 186 201 202 239 198 207 210 209 155 68 22 312 213 177 220 219 202 186 200 224 211 234 268 266 245 245 254 149 212 229 220 210 176 169 156
205 147 152 210 325 243 182 190 179 193 186 204 138 203 196 221 220 178 179 111 346 12 17 267 249 228 228 236 203 202 210 202 215 236 245 244 264 230 212 239 206 204 186 178 174
214 208 126 185 211 205 206 181 179 161 195 198 182 234 223 222 231 226 254 258 139 29 291 258 256 251 263 261 251 243 235 213 210 230 247 257 258 255 276 242 236 199 185 182 179
172 177 181 145 172 187 170 184 190 154 212 168 205 144 183 226 276 151 317 0 339 323 12 339 253 260 255 251 247 245 240 242 226 248 264 265 271 275 278 255 222 196 189 192 188
139 176 270 154 168 187 192 169 173 158 74 78 132 171 186 112 333 321 295 291 283 308 305 281 262 244 262 271 265 250 237 233 236 232 237 256 260 269 219 228 214 201 199 198 190